Regional Weather Roundup
Issued by NWS

Home | Current Version | Previous Version | Text Only | Print | Product List | Glossary On
Versions: 1 2 3 4 5 6 7 8 9 10 11 12 13 14 15 16 17 18 19 20 21 22 23 24 25 26 27 28 29 30 31 32 33 34 35 36 37 38 39 40 41 42 43 44 45 46 47 48 49 50
000
ASUS43 KTOP 141008
RWRKS

WEATHER ROUNDUP FOR KANSAS
NATIONAL WEATHER SERVICE GOODLAND KS
400 AM CST SUN FEB 14 2016

NOTE:  "FAIR" INDICATES FEW OR NO CLOUDS BELOW 12,000 FEET WITH NO
SIGNIFICANT WEATHER AND/OR OBSTRUCTIONS TO VISIBILITY.

KSZ001>006-013>018-027>032-041>047-141100-
NORTHWEST KANSAS

CITY           SKY/WX    TMP DP  RH WIND       PRES   REMARKS
GOODLAND       CLEAR     29  23  78 W9        29.99F
HAYS           CLOUDY    19   9  63 S6        30.00F
HILL CITY      CLEAR     28  23  81 NW9       29.97F
RUSSELL        CLOUDY    19  15  84 SE7       29.98F
$$

KSZ061>065-074>080-084>089-141100-
SOUTHWEST KANSAS

CITY           SKY/WX    TMP DP  RH WIND       PRES   REMARKS
DODGE CITY     CLOUDY    24  19  81 N7        29.99F
ELKHART          N/A     36  25  65 N14         N/A  WCI  27
GARDEN CITY    CLOUDY    28  23  81 N12       29.99F WCI  18
GREAT BEND     CLOUDY    21   9  58 N3        30.01R
LIBERAL        CLOUDY    30  21  69 N13       29.99R WCI  20
PRATT          CLOUDY    27  14  59 N8        29.98F
$$

KSZ066>073-081>083-090>101-141100-
SOUTHEAST KANSAS

CITY           SKY/WX    TMP DP  RH WIND       PRES   REMARKS
CHANUTE        CLOUDY    35  15  44 NE6       30.00S
COFFEYVILLE    CLOUDY    39  18  42 SE8       29.98F
HUTCHINSON     PTCLDY    25  11  55 N3        30.01F
MEDICINE LODGE   N/A     36  23  59 NE10      29.96F WCI  28
NEWTON         MOCLDY    25   9  50 NE7       30.02F
PARSONS        CLOUDY    39  18  42 SE6       30.00S
WICHITA INTL   CLOUDY    31  13  47 N10       30.01F WCI  22
WICHITA JABRA  CLOUDY    28  12  51 NE8       30.01S
WICHITA MCCONL CLOUDY    30  14  51 N10       30.01S WCI  21
WINFIELD       CLOUDY    37  21  52 N12       30.01R WCI  29
$$

KSZ007>012-019>026-033>040-048>060-102>105-141100-
NORTHEAST KANSAS

CITY           SKY/WX    TMP DP  RH WIND       PRES   REMARKS
CONCORDIA      CLOUDY    18   8  65 S5        30.00F
EMPORIA        MIX PCPN  25  11  55 SE9       30.00F
LAWRENCE       CLOUDY    25   7  46 SE8       30.04F
MANHATTAN      CLEAR     20   8  60 NW3       30.06S
MARYSVILLE     PTCLDY    19   9  63 S7        30.01F
OLATHE IND     MIX PCPN  25   9  50 SE15G21   30.03F WCI  13
OLATHE EXE     CLOUDY    25   6  44 SE13      30.03F WCI  14
SALINA         CLOUDY    21   9  59 NW5       30.06R
TOPEKA BILLARD MOCLDY    26   6  42 SE6       30.05F
TOPEKA FORBES  CLOUDY    25   8  48 SE5       30.02F
$$



USA.gov is the U.S. government's official web portal to all federal, state and local government web resources and services.